ONEWEB-0289 (49079 NORAD) Tracking and Keplerian Element Data

This shows tracking and keplerian element data for the satellite.

Feedback or suggestion? Click here.




ElementValue
Catalog49079
NameONEWEB-0289
Epoch Orbit352
Epoch Day300.58334491
Epoch Year2021
RAAN344.1146
Inclination87.4631
Eccentricity0.0023694
Argument of Perigee66.4522
Mean Anonmoly26.3734
Mean Motion14.72473048
Decay Rate0.00034785
L11 49079U 21075E 21300.58334491 .00034785 00000-0 54346-2 0 9998
L22 49079 87.4631 344.1146 0023694 66.4522 26.3734 14.72473048 3527

Live tracking and technical data element details for ONEWEB-0289 (NORAD 49079). ONEWEB-0289 can be tracked NOW for your location showing map with azimuth and elevation plus other details from your city location.

Track the satellite on the map from your city or location and see movement details for azimuth, elevation, latitude, longitude, range, height, and movement on the map or in text.







IsCatalogInMostPopularTable: catalog: 49079, numindb: 13
Update: records affected: 1



GetName: 49079 ONEWEB-0289

Hit Count: updated at: Thu, 28 Oct 2021 12:08:07 GMT